• In Netherlands
  • List of Countries
  • For 7 days
  • Water Temperature
  • Satellite Maps
  • Weather Map
  • Weather Widgets
  • user-avatar
    Login

    Hourly Weather Kabul

    Today, 19 February, Sunday

    Time Temperature Precipitation Wind Pressure Humidity
    00:00 +4°C° 0.5 mm 2 mps 605 mmHg 92%
    01:00 +4°C° 0.5 mm 2 mps 605 mmHg 93%
    02:00 +4°C° 0.5 mm 2 mps 605 mmHg 94%
    03:00 +4°C° 0.4 mm 2 mps 605 mmHg 94%
    04:00 +4°C° 0.4 mm 2 mps 605 mmHg 94%
    05:00 +4°C° 0 mm 2 mps 605 mmHg 93%
    06:00 +4°C° 0.2 mm 2 mps 605 mmHg 92%
    07:00 +4°C° 0.2 mm 2 mps 606 mmHg 92%
    08:00 +3°C° 0.2 mm 3 mps 606 mmHg 91%
    09:00 +4°C° 0.3 mm 3 mps 606 mmHg 87%
    10:00 +5°C° 0.3 mm 3 mps 607 mmHg 83%
    11:00 +7°C° 0.3 mm 3 mps 608 mmHg 79%
    12:00 +7°C° 0.4 mm 3 mps 607 mmHg 75%
    13:00 +7°C° 0.4 mm 3 mps 607 mmHg 71%
    14:00 +8°C° 0.4 mm 3 mps 607 mmHg 68%
    15:00 +7°C° 0.2 mm 3 mps 607 mmHg 66%
    16:00 +5°C° 0.2 mm 3 mps 607 mmHg 65%
    17:00 +5°C° 0.2 mm 3 mps 607 mmHg 63%
    18:00 +3°C° 0 mm 3 mps 607 mmHg 64%
    19:00 +1°C° 0 mm 3 mps 607 mmHg 64%
    20:00 0°C° 0 mm 3 mps 607 mmHg 65%
    21:00 -2°C° 0 mm 4 mps 607 mmHg 65%
    22:00 -3°C° 0 mm 4 mps 607 mmHg 64%
    23:00 -4°C° 0 mm 4 mps 607 mmHg 64%

    Tomorrow, 20 February, Monday

    Time Temperature Precipitation Wind Pressure Humidity
    00:00 -4°C° 0 mm 4 mps 606 mmHg 62%
    01:00 -5°C° 0 mm 4 mps 606 mmHg 60%
    02:00 -5°C° 0 mm 4 mps 606 mmHg 58%
    03:00 -7°C° 0 mm 4 mps 606 mmHg 56%
    04:00 -7°C° 0 mm 4 mps 606 mmHg 53%
    05:00 -7°C° 0 mm 4 mps 606 mmHg 51%
    06:00 -7°C° 0 mm 4 mps 606 mmHg 49%
    07:00 -7°C° 0 mm 4 mps 606 mmHg 46%
    08:00 -7°C° 0 mm 4 mps 606 mmHg 43%
    09:00 -3°C° 0 mm 4 mps 607 mmHg 39%
    10:00 0°C° 0 mm 3 mps 607 mmHg 35%
    11:00 +3°C° 0 mm 3 mps 607 mmHg 31%
    12:00 +3°C° 0 mm 3 mps 607 mmHg 32%
    13:00 +4°C° 0 mm 3 mps 606 mmHg 33%
    14:00 +5°C° 0 mm 3 mps 606 mmHg 33%
    15:00 +4°C° 0 mm 3 mps 606 mmHg 36%
    16:00 +4°C° 0 mm 3 mps 605 mmHg 39%
    17:00 +4°C° 0 mm 2 mps 605 mmHg 42%
    18:00 +1°C° 0 mm 3 mps 605 mmHg 42%
    19:00 -1°C° 0 mm 3 mps 604 mmHg 42%
    20:00 -4°C° 0 mm 3 mps 604 mmHg 42%
    21:00 -4°C° 0 mm 3 mps 604 mmHg 41%
    22:00 -5°C° 0 mm 3 mps 604 mmHg 40%
    23:00 -5°C° 0 mm 4 mps 604 mmHg 39%

    Day after tomorrow, 21 February, Tuesday

    Time Temperature Precipitation Wind Pressure Humidity
    00:00 -5°C° 0 mm 3 mps 604 mmHg 37%
    01:00 -5°C° 0 mm 3 mps 603 mmHg 36%
    02:00 -6°C° 0 mm 3 mps 603 mmHg 34%
    03:00 -6°C° 0 mm 3 mps 603 mmHg 33%
    04:00 -6°C° 0 mm 3 mps 603 mmHg 31%
    05:00 -6°C° 0 mm 3 mps 602 mmHg 29%
    06:00 -6°C° 0 mm 3 mps 603 mmHg 28%
    07:00 -5°C° 0 mm 3 mps 603 mmHg 27%
    08:00 -5°C° 0 mm 3 mps 603 mmHg 26%
    09:00 -1°C° 0 mm 2 mps 604 mmHg 26%
    10:00 +2°C° 0 mm 2 mps 605 mmHg 26%
    11:00 +5°C° 0 mm 1 mps 605 mmHg 25%
    12:00 +6°C° 0 mm 1 mps 605 mmHg 26%
    13:00 +7°C° 0 mm 1 mps 605 mmHg 26%
    14:00 +7°C° 0 mm 1 mps 604 mmHg 26%
    15:00 +7°C° 0 mm 1 mps 604 mmHg 31%
    16:00 +6°C° 0 mm 1 mps 604 mmHg 35%
    17:00 +5°C° 0 mm 1 mps 604 mmHg 39%
    18:00 +3°C° 0 mm 1 mps 603 mmHg 41%
    19:00 +1°C° 0 mm 1 mps 603 mmHg 43%
    20:00 -1°C° 0 mm 1 mps 602 mmHg 46%
    21:00 -1°C° 0 mm 1 mps 602 mmHg 44%
    22:00 -1°C° 0 mm 1 mps 602 mmHg 43%
    23:00 -2°C° 0 mm 1 mps 603 mmHg 42%

    22 February, Wednesday

    Time Temperature Precipitation Wind Pressure Humidity
    00:00 -2°C° 0 mm 1 mps 602 mmHg 41%
    01:00 -2°C° 0 mm 1 mps 602 mmHg 39%
    02:00 -2°C° 0 mm 1 mps 602 mmHg 38%
    03:00 -2°C° 0 mm 1 mps 602 mmHg 38%
    04:00 -3°C° 0 mm 1 mps 602 mmHg 38%
    05:00 -4°C° 0 mm 0 mps 601 mmHg 37%
    06:00 -3°C° 0 mm 0 mps 602 mmHg 37%
    07:00 -3°C° 0 mm 0 mps 603 mmHg 36%
    08:00 -2°C° 0 mm 0 mps 603 mmHg 35%
    09:00 +1°C° 0 mm 1 mps 604 mmHg 32%
    10:00 +3°C° 0 mm 1 mps 605 mmHg 29%
    11:00 +5°C° 0 mm 1 mps 606 mmHg 27%
    12:00 +6°C° 0 mm 1 mps 606 mmHg 28%
    13:00 +6°C° 0 mm 1 mps 606 mmHg 29%
    14:00 +5°C° 0 mm 2 mps 606 mmHg 30%
    15:00 +5°C° 0 mm 2 mps 605 mmHg 32%
    16:00 +4°C° 0 mm 2 mps 605 mmHg 35%
    17:00 +3°C° 0 mm 2 mps 605 mmHg 37%
    18:00 +3°C° 0 mm 1 mps 605 mmHg 41%
    19:00 +1°C° 0 mm 1 mps 605 mmHg 45%
    20:00 -1°C° 0 mm 1 mps 604 mmHg 50%
    21:00 -1°C° 0 mm 1 mps 605 mmHg 49%
    22:00 -2°C° 0 mm 1 mps 605 mmHg 49%
    23:00 -2°C° 0 mm 1 mps 605 mmHg 48%

    23 February, Thursday

    Time Temperature Precipitation Wind Pressure Humidity
    00:00 -2°C° 0 mm 1 mps 605 mmHg 48%
    01:00 -2°C° 0 mm 1 mps 605 mmHg 47%
    02:00 -2°C° 0 mm 1 mps 605 mmHg 46%
    03:00 -2°C° 0 mm 1 mps 605 mmHg 46%
    04:00 -3°C° 0 mm 1 mps 605 mmHg 45%
    05:00 -3°C° 0 mm 1 mps 605 mmHg 45%
    06:00 -2°C° 0 mm 1 mps 605 mmHg 43%
    07:00 -2°C° 0 mm 1 mps 606 mmHg 41%
    08:00 -1°C° 0 mm 1 mps 607 mmHg 40%
    09:00 +1°C° 0 mm 1 mps 608 mmHg 36%
    10:00 +3°C° 0 mm 1 mps 608 mmHg 33%
    11:00 +5°C° 0 mm 1 mps 609 mmHg 30%
    12:00 +5°C° 0 mm 1 mps 609 mmHg 30%
    13:00 +6°C° 0 mm 1 mps 609 mmHg 30%
    14:00 +7°C° 0 mm 1 mps 609 mmHg 31%
    15:00 +6°C° 0 mm 1 mps 608 mmHg 32%
    16:00 +6°C° 0 mm 1 mps 608 mmHg 33%
    17:00 +6°C° 0 mm 1 mps 608 mmHg 35%
    18:00 +4°C° 0 mm 1 mps 608 mmHg 39%
    19:00 +2°C° 0 mm 1 mps 607 mmHg 44%
    20:00 0°C° 0 mm 1 mps 607 mmHg 49%
    21:00 0°C° 0 mm 1 mps 607 mmHg 48%
    22:00 0°C° 0 mm 1 mps 608 mmHg 46%
    23:00 0°C° 0 mm 1 mps 608 mmHg 45%

    24 February, Friday

    Time Temperature Precipitation Wind Pressure Humidity
    00:00 0°C° 0 mm 1 mps 608 mmHg 44%
    01:00 0°C° 0 mm 1 mps 608 mmHg 43%
    02:00 -1°C° 0 mm 1 mps 607 mmHg 41%
    03:00 -1°C° 0 mm 1 mps 607 mmHg 41%
    04:00 -1°C° 0 mm 1 mps 607 mmHg 40%
    05:00 -1°C° 0 mm 1 mps 607 mmHg 39%
    06:00 0°C° 0 mm 1 mps 607 mmHg 38%
    07:00 +1°C° 0 mm 1 mps 608 mmHg 37%
    08:00 +1°C° 0 mm 1 mps 608 mmHg 36%
    09:00 +4°C° 0 mm 1 mps 609 mmHg 33%
    10:00 +6°C° 0 mm 1 mps 610 mmHg 31%
    11:00 +8°C° 0 mm 1 mps 610 mmHg 29%
    12:00 +8°C° 0 mm 1 mps 610 mmHg 29%
    13:00 +9°C° 0 mm 1 mps 610 mmHg 29%
    14:00 +10°C° 0 mm 1 mps 610 mmHg 29%
    15:00 +9°C° 0 mm 1 mps 610 mmHg 31%
    16:00 +9°C° 0 mm 1 mps 609 mmHg 33%
    17:00 +9°C° 0 mm 1 mps 609 mmHg 35%
    18:00 +7°C° 0 mm 1 mps 609 mmHg 37%
    19:00 +5°C° 0 mm 1 mps 609 mmHg 40%
    20:00 +4°C° 0 mm 1 mps 608 mmHg 43%
    21:00 +3°C° 0 mm 1 mps 608 mmHg 42%
    22:00 +3°C° 0 mm 1 mps 608 mmHg 42%
    23:00 +3°C° 0 mm 1 mps 608 mmHg 42%
    Show more